EOS-5

Basic Information
目录编号:
100607
目录名称:
EOS-5
国际标识:
2026-202A
轨道中心:
EARTH
卫星名称:
EOS-5
卫星全名:
EOS-5
卫星状态:
在轨 (已飞行2 天)
发射日期:
2026-09-03 UTC
国别 :
印度 (IN)
星等 :
--
Orbit Information
数据来源 国际轨道数据
星历时间: 2026-09-05T04:13:46+0800
9小时前
查看轨道信息
半长轴: 21931.407km
偏心率: 0.7022576
轨道倾角: 19.322°
近地点辐角 179.139°
升交点赤经 249.418°
平近点角 183.532°
近地点: 151.772km
远地点: 30954.768km
周期: 538.716分钟
每日圈数: 2.673025
Detailed Information
使用方式:
暂无
2D Orbit Map
3D Orbit Map
Orbit Altitude Analysis Chart
Orbit Inclination Analysis Chart
Orbit Comprehensive Analysis Chart
View Comprehensive Chart